Saint Bonnet de Bellac- Haute Vienne - France
Donnes mto: samedi, 07/07/2012
Date Horaire Temp. E. Hum. E. P.atmo. Pluie Vent Direction Direction Ensoleilleme Solaire P. de rose Temp au vent Rafales
07/07/2012 00:00 13,6 C 83 % 1013,2 hPa 0,0 mm 0,0 km/h (0 Bft) S-SO 202 0 min 0 W/m 10,8 C 13,6 C 2,9 km/h (1 Bft)
07/07/2012 00:10 13,4 C 85 % 1013,2 hPa 0,0 mm 0,0 km/h (0 Bft) S-SO 202 0 min 0 W/m 10,9 C 13,4 C 0,0 km/h (0 Bft)
07/07/2012 00:20 13,3 C 85 % 1013,3 hPa 0,0 mm 0,0 km/h (0 Bft) S-SO 202 0 min 0 W/m 10,8 C 13,3 C 0,0 km/h (0 Bft)
07/07/2012 00:30 13,2 C 86 % 1013,3 hPa 0,0 mm 0,4 km/h (0 Bft) S 180 0 min 0 W/m 10,9 C 13,2 C 4,3 km/h (1 Bft)
07/07/2012 00:40 13,1 C 87 % 1013,4 hPa 0,0 mm 0,4 km/h (0 Bft) S 180 0 min 0 W/m 11,0 C 13,1 C 0,4 km/h (0 Bft)
07/07/2012 00:50 12,9 C 87 % 1013,4 hPa 0,0 mm 0,0 km/h (0 Bft) S-SO 202 0 min 0 W/m 10,8 C 12,9 C 0,0 km/h (0 Bft)
07/07/2012 01:00 12,8 C 88 % 1013,4 hPa 0,0 mm 0,7 km/h (0 Bft) S-SE 157 0 min 0 W/m 10,9 C 12,8 C 4,3 km/h (1 Bft)
07/07/2012 01:10 12,9 C 88 % 1013,4 hPa 0,0 mm 2,2 km/h (1 Bft) S-SO 202 0 min 0 W/m 11,0 C 12,9 C 5,8 km/h (2 Bft)
07/07/2012 01:20 13,1 C 89 % 1013,4 hPa 0,0 mm 1,4 km/h (1 Bft) S 180 0 min 0 W/m 11,3 C 13,1 C 6,1 km/h (2 Bft)
07/07/2012 01:30 13,3 C 88 % 1013,4 hPa 0,0 mm 2,2 km/h (1 Bft) S-SO 202 0 min 0 W/m 11,4 C 13,3 C 3,6 km/h (1 Bft)
07/07/2012 01:40 13,4 C 88 % 1013,3 hPa 0,0 mm 3,6 km/h (1 Bft) S-SE 157 0 min 0 W/m 11,5 C 13,4 C 6,8 km/h (2 Bft)
07/07/2012 01:50 13,5 C 88 % 1013,4 hPa 0,0 mm 1,4 km/h (1 Bft) O-SO 247 0 min 0 W/m 11,6 C 13,5 C 3,2 km/h (1 Bft)
07/07/2012 02:00 13,6 C 87 % 1013,4 hPa 0,0 mm 2,5 km/h (1 Bft) S 180 0 min 0 W/m 11,5 C 13,6 C 6,1 km/h (2 Bft)
07/07/2012 02:10 13,6 C 87 % 1013,3 hPa 0,0 mm 3,2 km/h (1 Bft) S 180 0 min 0 W/m 11,5 C 13,6 C 4,3 km/h (1 Bft)
07/07/2012 02:20 13,6 C 87 % 1013,2 hPa 0,0 mm 4,0 km/h (1 Bft) S-SO 202 0 min 0 W/m 11,5 C 13,6 C 7,6 km/h (2 Bft)
07/07/2012 02:30 13,5 C 86 % 1013,1 hPa 0,0 mm 4,0 km/h (1 Bft) SO 225 0 min 0 W/m 11,2 C 13,5 C 4,0 km/h (1 Bft)
07/07/2012 02:40 13,5 C 87 % 1013,0 hPa 0,0 mm 6,1 km/h (2 Bft) SO 225 0 min 0 W/m 11,4 C 13,5 C 7,2 km/h (2 Bft)
07/07/2012 02:50 13,6 C 87 % 1012,9 hPa 0,0 mm 1,4 km/h (1 Bft) S-SO 202 0 min 0 W/m 11,5 C 13,6 C 4,0 km/h (1 Bft)
07/07/2012 03:02 13,7 C 87 % 1012,7 hPa 0,0 mm 3,6 km/h (1 Bft) S-SO 202 0 min 0 W/m 11,6 C 13,7 C 7,9 km/h (2 Bft)
07/07/2012 03:10 13,8 C 86 % 1012,8 hPa 0,0 mm 3,6 km/h (1 Bft) S-SO 202 0 min 0 W/m 11,5 C 13,8 C 4,0 km/h (1 Bft)
07/07/2012 03:20 13,8 C 86 % 1012,8 hPa 0,0 mm 3,2 km/h (1 Bft) SO 225 0 min 0 W/m 11,5 C 13,8 C 6,5 km/h (2 Bft)
07/07/2012 03:30 13,9 C 86 % 1012,7 hPa 0,0 mm 4,3 km/h (1 Bft) S-SO 202 0 min 0 W/m 11,6 C 13,9 C 6,1 km/h (2 Bft)
07/07/2012 03:40 14,1 C 85 % 1012,6 hPa 0,0 mm 2,5 km/h (1 Bft) S-SO 202 0 min 0 W/m 11,6 C 14,1 C 4,0 km/h (1 Bft)
07/07/2012 03:50 13,9 C 85 % 1012,7 hPa 0,0 mm 2,9 km/h (1 Bft) S-SO 202 0 min 0 W/m 11,4 C 13,9 C 2,9 km/h (1 Bft)
07/07/2012 04:00 13,8 C 86 % 1012,7 hPa 0,0 mm 2,5 km/h (1 Bft) S-SO 202 0 min 0 W/m 11,5 C 13,8 C 4,3 km/h (1 Bft)
07/07/2012 04:10 13,7 C 86 % 1012,6 hPa 0,0 mm 3,6 km/h (1 Bft) S-SO 202 0 min 0 W/m 11,4 C 13,7 C 3,6 km/h (1 Bft)
07/07/2012 04:20 13,7 C 87 % 1012,7 hPa 0,0 mm 2,5 km/h (1 Bft) S-SO 202 0 min 0 W/m 11,6 C 13,7 C 3,6 km/h (1 Bft)
07/07/2012 04:30 13,7 C 87 % 1012,6 hPa 0,0 mm 8,3 km/h (2 Bft) S-SO 202 0 min 0 W/m 11,6 C 13,7 C 8,3 km/h (2 Bft)
07/07/2012 04:40 13,6 C 87 % 1012,6 hPa 0,0 mm 4,0 km/h (1 Bft) SO 225 0 min 0 W/m 11,5 C 13,6 C 6,5 km/h (2 Bft)
07/07/2012 04:50 13,6 C 87 % 1012,5 hPa 0,0 mm 5,0 km/h (1 Bft) SO 225 0 min 0 W/m 11,5 C 13,6 C 5,0 km/h (1 Bft)
07/07/2012 05:00 13,6 C 87 % 1012,4 hPa 0,0 mm 4,0 km/h (1 Bft) O-SO 247 0 min 0 W/m 11,5 C 13,6 C 5,0 km/h (1 Bft)
07/07/2012 05:10 13,6 C 87 % 1012,3 hPa 0,0 mm 3,6 km/h (1 Bft) S 180 0 min 0 W/m 11,5 C 13,6 C 3,6 km/h (1 Bft)
07/07/2012 05:20 13,6 C 87 % 1012,3 hPa 0,0 mm 5,4 km/h (2 Bft) SO 225 0 min 0 W/m 11,5 C 13,6 C 8,3 km/h (2 Bft)
07/07/2012 05:30 13,6 C 87 % 1012,1 hPa 0,0 mm 5,4 km/h (2 Bft) SO 225 0 min 0 W/m 11,5 C 13,6 C 10,8 km/h (2 Bft)
07/07/2012 05:40 13,6 C 87 % 1012,1 hPa 0,0 mm 3,2 km/h (1 Bft) S-SO 202 0 min 0 W/m 11,5 C 13,6 C 4,0 km/h (1 Bft)
07/07/2012 05:50 13,6 C 87 % 1012,0 hPa 0,0 mm 2,2 km/h (1 Bft) S 180 0 min 0 W/m 11,5 C 13,6 C 3,6 km/h (1 Bft)
07/07/2012 06:00 13,4 C 87 % 1012,0 hPa 0,0 mm 2,5 km/h (1 Bft) S-SO 202 0 min 0 W/m 11,3 C 13,4 C 4,3 km/h (1 Bft)
07/07/2012 06:10 13,3 C 88 % 1012,0 hPa 0,0 mm 0,4 km/h (0 Bft) SO 225 0 min 0 W/m 11,4 C 13,3 C 3,6 km/h (1 Bft)
07/07/2012 06:20 13,1 C 88 % 1012,0 hPa 0,0 mm 0,0 km/h (0 Bft) SO 225 0 min 0 W/m 11,2 C 13,1 C 0,0 km/h (0 Bft)
07/07/2012 06:30 12,9 C 88 % 1012,0 hPa 0,0 mm 0,0 km/h (0 Bft) SO 225 0 min 0 W/m 11,0 C 12,9 C 0,0 km/h (0 Bft)
07/07/2012 06:40 12,6 C 88 % 1012,0 hPa 0,0 mm 0,0 km/h (0 Bft) S-SO 202 0 min 0 W/m 10,7 C 12,6 C 0,0 km/h (0 Bft)
07/07/2012 06:50 12,5 C 88 % 1012,0 hPa 0,0 mm 0,0 km/h (0 Bft) S 180 0 min 0 W/m 10,6 C 12,5 C 0,0 km/h (0 Bft)
07/07/2012 07:00 12,6 C 89 % 1012,0 hPa 0,0 mm 0,4 km/h (0 Bft) S-SO 202 0 min 0 W/m 10,8 C 12,6 C 0,4 km/h (0 Bft)
07/07/2012 07:10 12,9 C 90 % 1011,7 hPa 0,0 mm 1,1 km/h (1 Bft) S-SO 202 0 min 0 W/m 11,3 C 12,9 C 3,6 km/h (1 Bft)
07/07/2012 07:20 13,6 C 89 % 1011,9 hPa 0,0 mm 1,4 km/h (1 Bft) SO 225 0 min 0 W/m 11,8 C 13,6 C 3,6 km/h (1 Bft)
07/07/2012 07:30 14,1 C 88 % 1012,0 hPa 0,0 mm 0,7 km/h (0 Bft) SO 225 0 min 0 W/m 12,1 C 14,1 C 4,0 km/h (1 Bft)
07/07/2012 07:40 14,5 C 87 % 1011,9 hPa 0,0 mm 1,1 km/h (1 Bft) S-SO 202 0 min 0 W/m 12,4 C 14,5 C 1,1 km/h (1 Bft)
07/07/2012 07:50 14,8 C 86 % 1011,9 hPa 0,0 mm 7,6 km/h (2 Bft) S-SO 202 0 min 0 W/m 12,5 C 14,8 C 14,8 km/h (3 Bft)
07/07/2012 08:00 15,1 C 85 % 1011,8 hPa 0,0 mm 6,8 km/h (2 Bft) S-SO 202 0 min 0 W/m 12,6 C 15,1 C 6,8 km/h (2 Bft)
07/07/2012 08:10 15,6 C 84 % 1011,7 hPa 0,0 mm 5,4 km/h (2 Bft) SO 225 0 min 0 W/m 12,9 C 15,6 C 11,2 km/h (2 Bft)
07/07/2012 08:20 16,1 C 82 % 1011,7 hPa 0,0 mm 4,0 km/h (1 Bft) S-SO 202 0 min 0 W/m 13,0 C 16,1 C 9,4 km/h (2 Bft)
07/07/2012 08:30 16,5 C 80 % 1011,8 hPa 0,0 mm 4,0 km/h (1 Bft) S-SO 202 0 min 0 W/m 13,0 C 16,5 C 4,0 km/h (1 Bft)
07/07/2012 08:40 16,9 C 78 % 1011,9 hPa 0,0 mm 4,3 km/h (1 Bft) S-SE 157 0 min 0 W/m 13,0 C 16,9 C 9,4 km/h (2 Bft)
07/07/2012 08:50 17,4 C 77 % 1011,8 hPa 0,0 mm 7,9 km/h (2 Bft) S 180 0 min 0 W/m 13,3 C 17,4 C 14,8 km/h (3 Bft)
07/07/2012 09:00 17,8 C 76 % 1011,9 hPa 0,0 mm 4,0 km/h (1 Bft) S-SE 157 0 min 0 W/m 13,5 C 17,8 C 4,3 km/h (1 Bft)
07/07/2012 09:10 18,2 C 73 % 1011,9 hPa 0,0 mm 8,3 km/h (2 Bft) S 180 0 min 0 W/m 13,3 C 18,2 C 12,2 km/h (2 Bft)
07/07/2012 09:20 18,4 C 72 % 1011,9 hPa 0,0 mm 8,3 km/h (2 Bft) S-SO 202 0 min 0 W/m 13,3 C 18,4 C 11,9 km/h (2 Bft)
07/07/2012 09:30 18,8 C 72 % 1011,9 hPa 0,0 mm 7,9 km/h (2 Bft) SO 225 0 min 0 W/m 13,6 C 18,8 C 11,2 km/h (2 Bft)
07/07/2012 09:40 19,1 C 70 % 1012,0 hPa 0,0 mm 9,0 km/h (2 Bft) S 180 0 min 0 W/m 13,5 C 19,1 C 10,4 km/h (2 Bft)
07/07/2012 09:50 19,4 C 70 % 1012,1 hPa 0,0 mm 6,8 km/h (2 Bft) SO 225 0 min 0 W/m 13,8 C 19,4 C 10,8 km/h (2 Bft)
07/07/2012 10:00 19,8 C 70 % 1012,1 hPa 0,0 mm 5,4 km/h (2 Bft) SO 225 0 min 0 W/m 14,2 C 19,8 C 8,6 km/h (2 Bft)
07/07/2012 10:10 20,1 C 70 % 1012,0 hPa 0,0 mm 6,1 km/h (2 Bft) O-SO 247 0 min 0 W/m 14,5 C 20,1 C 9,4 km/h (2 Bft)
07/07/2012 10:20 20,4 C 70 % 1012,0 hPa 0,0 mm 8,3 km/h (2 Bft) O-SO 247 0 min 0 W/m 14,7 C 20,4 C 13,3 km/h (3 Bft)
07/07/2012 10:30 20,6 C 69 % 1012,0 hPa 0,0 mm 8,6 km/h (2 Bft) S-SO 202 0 min 0 W/m 14,7 C 20,6 C 10,8 km/h (2 Bft)
07/07/2012 10:40 20,9 C 69 % 1011,9 hPa 0,0 mm 7,9 km/h (2 Bft) S-SO 202 0 min 0 W/m 15,0 C 20,9 C 10,1 km/h (2 Bft)
07/07/2012 10:50 21,3 C 68 % 1011,7 hPa 0,0 mm 5,8 km/h (2 Bft) SO 225 0 min 0 W/m 15,1 C 21,3 C 6,5 km/h (2 Bft)
07/07/2012 11:00 21,3 C 66 % 1011,7 hPa 0,0 mm 6,8 km/h (2 Bft) SO 225 0 min 0 W/m 14,7 C 21,3 C 6,8 km/h (2 Bft)
07/07/2012 11:10 20,8 C 65 % 1011,7 hPa 0,0 mm 4,7 km/h (1 Bft) SO 225 0 min 0 W/m 14,0 C 20,8 C 4,7 km/h (1 Bft)
07/07/2012 11:20 20,4 C 68 % 1011,8 hPa 0,0 mm 6,1 km/h (2 Bft) S-SO 202 0 min 0 W/m 14,3 C 20,4 C 7,2 km/h (2 Bft)
07/07/2012 11:30 20,3 C 68 % 1011,8 hPa 0,0 mm 10,8 km/h (2 Bft) S-SO 202 0 min 0 W/m 14,2 C 20,3 C 15,1 km/h (3 Bft)
07/07/2012 11:40 20,4 C 70 % 1011,9 hPa 0,0 mm 10,1 km/h (2 Bft) SE 135 0 min 0 W/m 14,7 C 20,4 C 11,2 km/h (2 Bft)
07/07/2012 11:50 20,3 C 69 % 1011,9 hPa 0,0 mm 7,9 km/h (2 Bft) S 180 0 min 0 W/m 14,4 C 20,3 C 16,2 km/h (3 Bft)
07/07/2012 12:00 19,9 C 69 % 1011,8 hPa 0,0 mm 12,6 km/h (3 Bft) SO 225 0 min 0 W/m 14,0 C 19,9 C 12,6 km/h (3 Bft)
07/07/2012 12:10 20,1 C 71 % 1011,7 hPa 0,0 mm 5,8 km/h (2 Bft) S-SE 157 0 min 0 W/m 14,7 C 20,1 C 6,8 km/h (2 Bft)
07/07/2012 12:20 20,6 C 69 % 1011,8 hPa 0,0 mm 4,7 km/h (1 Bft) SO 225 0 min 0 W/m 14,7 C 20,6 C 9,4 km/h (2 Bft)
07/07/2012 12:30 20,6 C 70 % 1011,7 hPa 0,0 mm 4,7 km/h (1 Bft) S-SO 202 0 min 0 W/m 14,9 C 20,6 C 6,5 km/h (2 Bft)
07/07/2012 12:40 20,8 C 67 % 1011,8 hPa 0,0 mm 5,8 km/h (2 Bft) O 270 0 min 0 W/m 14,4 C 20,8 C 14,0 km/h (3 Bft)
07/07/2012 12:50 20,9 C 69 % 1011,6 hPa 0,0 mm 7,9 km/h (2 Bft) S 180 0 min 0 W/m 15,0 C 20,9 C 7,9 km/h (2 Bft)
07/07/2012 13:00 21,3 C 66 % 1011,5 hPa 0,0 mm 2,5 km/h (1 Bft) SO 225 0 min 0 W/m 14,7 C 21,3 C 2,5 km/h (1 Bft)
07/07/2012 13:10 21,8 C 66 % 1011,5 hPa 0,0 mm 6,1 km/h (2 Bft) SE 135 0 min 0 W/m 15,2 C 21,8 C 6,1 km/h (2 Bft)
07/07/2012 13:20 22,1 C 65 % 1011,3 hPa 0,0 mm 2,9 km/h (1 Bft) SO 225 0 min 0 W/m 15,2 C 22,1 C 7,2 km/h (2 Bft)
07/07/2012 13:30 22,3 C 64 % 1011,2 hPa 0,0 mm 5,8 km/h (2 Bft) S-SO 202 0 min 0 W/m 15,2 C 22,3 C 6,8 km/h (2 Bft)
07/07/2012 13:40 22,5 C 63 % 1011,2 hPa 0,0 mm 4,7 km/h (1 Bft) S-SO 202 0 min 0 W/m 15,1 C 22,5 C 8,6 km/h (2 Bft)
07/07/2012 13:50 22,6 C 63 % 1011,1 hPa 0,0 mm 6,5 km/h (2 Bft) S 180 0 min 0 W/m 15,2 C 22,6 C 8,6 km/h (2 Bft)
07/07/2012 14:00 22,8 C 62 % 1010,9 hPa 0,0 mm 5,0 km/h (1 Bft) SO 225 0 min 0 W/m 15,1 C 22,8 C 5,0 km/h (1 Bft)
07/07/2012 14:10 23,0 C 62 % 1010,8 hPa 0,0 mm 2,2 km/h (1 Bft) S-SO 202 0 min 0 W/m 15,3 C 23,0 C 3,6 km/h (1 Bft)
07/07/2012 14:20 23,3 C 61 % 1010,6 hPa 0,0 mm 5,0 km/h (1 Bft) S-SE 157 0 min 0 W/m 15,3 C 23,3 C 8,3 km/h (2 Bft)
07/07/2012 14:30 23,4 C 62 % 1010,4 hPa 0,0 mm 6,8 km/h (2 Bft) S-SO 202 0 min 0 W/m 15,7 C 23,4 C 13,0 km/h (3 Bft)
07/07/2012 14:40 23,8 C 62 % 1010,3 hPa 0,0 mm 5,4 km/h (2 Bft) SO 225 0 min 0 W/m 16,1 C 23,8 C 9,4 km/h (2 Bft)
07/07/2012 14:50 24,2 C 61 % 1010,2 hPa 0,0 mm 5,8 km/h (2 Bft) S-SO 202 0 min 0 W/m 16,2 C 24,2 C 9,0 km/h (2 Bft)
07/07/2012 15:00 24,4 C 59 % 1010,1 hPa 0,0 mm 2,9 km/h (1 Bft) O-SO 247 0 min 0 W/m 15,9 C 24,4 C 10,8 km/h (2 Bft)
07/07/2012 15:10 24,8 C 59 % 1010,0 hPa 0,0 mm 3,6 km/h (1 Bft) SE 135 0 min 0 W/m 16,2 C 24,8 C 3,6 km/h (1 Bft)
07/07/2012 15:20 25,1 C 59 % 1009,8 hPa 0,0 mm 3,2 km/h (1 Bft) S-SO 202 0 min 0 W/m 16,5 C 25,1 C 6,8 km/h (2 Bft)
07/07/2012 15:30 25,3 C 59 % 1009,8 hPa 0,0 mm 5,4 km/h (2 Bft) SO 225 0 min 0 W/m 16,7 C 25,3 C 10,4 km/h (2 Bft)
07/07/2012 15:40 25,4 C 58 % 1009,5 hPa 0,0 mm 4,3 km/h (1 Bft) SO 225 0 min 0 W/m 16,5 C 25,4 C 4,3 km/h (1 Bft)
07/07/2012 15:50 25,7 C 54 % 1009,4 hPa 0,0 mm 2,5 km/h (1 Bft) S-SE 157 0 min 0 W/m 15,7 C 25,7 C 7,9 km/h (2 Bft)
07/07/2012 16:00 25,6 C 54 % 1009,2 hPa 0,0 mm 7,9 km/h (2 Bft) S 180 0 min 0 W/m 15,6 C 25,6 C 8,3 km/h (2 Bft)
07/07/2012 16:10 25,7 C 54 % 1009,1 hPa 0,0 mm 3,6 km/h (1 Bft) SO 225 0 min 0 W/m 15,7 C 25,7 C 8,6 km/h (2 Bft)
07/07/2012 16:20 25,8 C 53 % 1009,0 hPa 0,0 mm 6,5 km/h (2 Bft) S 180 0 min 0 W/m 15,5 C 25,8 C 11,2 km/h (2 Bft)
07/07/2012 16:30 25,8 C 53 % 1009,0 hPa 0,0 mm 3,6 km/h (1 Bft) O-SO 247 0 min 0 W/m 15,5 C 25,8 C 7,2 km/h (2 Bft)
07/07/2012 16:40 26,1 C 53 % 1008,9 hPa 0,0 mm 6,8 km/h (2 Bft) S 180 0 min 0 W/m 15,8 C 26,1 C 15,8 km/h (3 Bft)
07/07/2012 16:50 26,1 C 50 % 1008,8 hPa 0,0 mm 5,0 km/h (1 Bft) S-SO 202 0 min 0 W/m 14,8 C 26,1 C 5,0 km/h (1 Bft)
07/07/2012 17:00 26,3 C 52 % 1008,6 hPa 0,0 mm 4,0 km/h (1 Bft) S-SO 202 0 min 0 W/m 15,6 C 26,3 C 8,6 km/h (2 Bft)
07/07/2012 17:10 26,4 C 49 % 1008,5 hPa 0,0 mm 12,2 km/h (2 Bft) S 180 0 min 0 W/m 14,8 C 26,4 C 20,9 km/h (4 Bft)
07/07/2012 17:20 26,6 C 49 % 1008,5 hPa 0,0 mm 8,6 km/h (2 Bft) S-SO 202 0 min 0 W/m 15,0 C 26,6 C 11,9 km/h (2 Bft)
07/07/2012 17:30 26,6 C 48 % 1008,4 hPa 0,0 mm 6,1 km/h (2 Bft) S-SO 202 0 min 0 W/m 14,7 C 26,6 C 9,4 km/h (2 Bft)
07/07/2012 17:40 26,8 C 48 % 1008,4 hPa 0,0 mm 7,6 km/h (2 Bft) S-SE 157 0 min 0 W/m 14,9 C 26,8 C 14,8 km/h (3 Bft)
07/07/2012 17:50 26,6 C 47 % 1008,3 hPa 0,0 mm 7,6 km/h (2 Bft) S-SO 202 0 min 0 W/m 14,3 C 26,6 C 7,9 km/h (2 Bft)
07/07/2012 18:00 26,6 C 48 % 1008,2 hPa 0,0 mm 7,6 km/h (2 Bft) S 180 0 min 0 W/m 14,7 C 26,6 C 13,0 km/h (3 Bft)
07/07/2012 18:10 26,6 C 48 % 1008,0 hPa 0,0 mm 4,7 km/h (1 Bft) S 180 0 min 0 W/m 14,7 C 26,6 C 9,0 km/h (2 Bft)
07/07/2012 18:20 26,6 C 49 % 1008,0 hPa 0,0 mm 11,9 km/h (2 Bft) SO 225 0 min 0 W/m 15,0 C 26,6 C 15,1 km/h (3 Bft)
07/07/2012 18:30 26,4 C 48 % 1007,8 hPa 0,0 mm 10,1 km/h (2 Bft) S-SO 202 0 min 0 W/m 14,5 C 26,4 C 13,7 km/h (3 Bft)
07/07/2012 18:40 26,3 C 49 % 1007,8 hPa 0,0 mm 8,3 km/h (2 Bft) SO 225 0 min 0 W/m 14,7 C 26,3 C 15,8 km/h (3 Bft)
07/07/2012 18:50 26,3 C 51 % 1007,8 hPa 0,0 mm 5,0 km/h (1 Bft) S-SO 202 0 min 0 W/m 15,3 C 26,3 C 8,3 km/h (2 Bft)
07/07/2012 19:00 26,2 C 52 % 1007,8 hPa 0,0 mm 0,7 km/h (0 Bft) O-SO 247 0 min 0 W/m 15,6 C 26,2 C 0,7 km/h (0 Bft)
07/07/2012 19:10 26,3 C 52 % 1007,7 hPa 0,0 mm 7,2 km/h (2 Bft) S-SO 202 0 min 0 W/m 15,6 C 26,3 C 9,0 km/h (2 Bft)
07/07/2012 19:20 26,1 C 54 % 1007,7 hPa 0,0 mm 4,0 km/h (1 Bft) S-SO 202 0 min 0 W/m 16,0 C 26,1 C 4,3 km/h (1 Bft)
07/07/2012 19:30 26,1 C 54 % 1007,5 hPa 0,0 mm 1,1 km/h (1 Bft) SO 225 0 min 0 W/m 16,0 C 26,1 C 4,3 km/h (1 Bft)
07/07/2012 19:40 26,3 C 54 % 1007,6 hPa 0,0 mm 2,2 km/h (1 Bft) S-SO 202 0 min 0 W/m 16,2 C 26,3 C 4,0 km/h (1 Bft)
07/07/2012 19:50 26,2 C 54 % 1007,4 hPa 0,0 mm 0,4 km/h (0 Bft) SO 225 0 min 0 W/m 16,1 C 26,2 C 4,0 km/h (1 Bft)
07/07/2012 20:00 26,1 C 53 % 1007,1 hPa 0,0 mm 8,3 km/h (2 Bft) S-SO 202 0 min 0 W/m 15,8 C 26,1 C 10,1 km/h (2 Bft)
07/07/2012 20:10 25,7 C 55 % 1007,0 hPa 0,0 mm 2,2 km/h (1 Bft) SO 225 0 min 0 W/m 16,0 C 25,7 C 4,0 km/h (1 Bft)
07/07/2012 20:20 25,4 C 56 % 1007,0 hPa 0,0 mm 4,0 km/h (1 Bft) S-SO 202 0 min 0 W/m 16,0 C 25,4 C 4,0 km/h (1 Bft)
07/07/2012 20:30 25,1 C 57 % 1006,8 hPa 0,0 mm 0,7 km/h (0 Bft) S-SO 202 0 min 0 W/m 16,0 C 25,1 C 0,7 km/h (0 Bft)
07/07/2012 20:40 24,8 C 57 % 1006,9 hPa 0,0 mm 2,5 km/h (1 Bft) SO 225 0 min 0 W/m 15,7 C 24,8 C 4,0 km/h (1 Bft)
07/07/2012 20:50 24,5 C 59 % 1006,8 hPa 0,0 mm 0,4 km/h (0 Bft) S 180 0 min 0 W/m 15,9 C 24,5 C 2,9 km/h (1 Bft)
07/07/2012 21:00 24,3 C 60 % 1006,9 hPa 0,0 mm 0,0 km/h (0 Bft) S 180 0 min 0 W/m 16,0 C 24,3 C 0,0 km/h (0 Bft)
07/07/2012 21:10 24,1 C 61 % 1006,6 hPa 0,0 mm 0,4 km/h (0 Bft) S 180 0 min 0 W/m 16,1 C 24,1 C 3,2 km/h (1 Bft)
07/07/2012 21:20 23,9 C 61 % 1006,3 hPa 0,0 mm 0,0 km/h (0 Bft) S 180 0 min 0 W/m 15,9 C 23,9 C 0,0 km/h (0 Bft)
07/07/2012 21:30 23,6 C 64 % 1006,9 hPa 0,0 mm 3,2 km/h (1 Bft) S-SO 202 0 min 0 W/m 16,4 C 23,6 C 4,0 km/h (1 Bft)
07/07/2012 21:40 23,1 C 65 % 1007,1 hPa 0,0 mm 0,0 km/h (0 Bft) S 180 0 min 0 W/m 16,2 C 23,1 C 0,0 km/h (0 Bft)
07/07/2012 21:50 22,7 C 65 % 1007,0 hPa 0,0 mm 6,5 km/h (2 Bft) S-SO 202 0 min 0 W/m 15,8 C 22,7 C 6,5 km/h (2 Bft)
07/07/2012 22:00 21,7 C 66 % 1007,1 hPa 0,0 mm 3,2 km/h (1 Bft) S-SE 157 0 min 0 W/m 15,1 C 21,7 C 3,6 km/h (1 Bft)
07/07/2012 22:10 21,0 C 68 % 1007,7 hPa 0,0 mm 2,9 km/h (1 Bft) SE 135 0 min 0 W/m 14,9 C 21,0 C 10,1 km/h (2 Bft)
07/07/2012 22:20 20,6 C 71 % 1007,8 hPa 0,1 mm 0,0 km/h (0 Bft) O-NO 292 0 min 0 W/m 15,2 C 20,6 C 0,0 km/h (0 Bft)
07/07/2012 22:30 20,2 C 74 % 1007,6 hPa 0,0 mm 0,0 km/h (0 Bft) N-NO 337 0 min 0 W/m 15,4 C 20,2 C 0,0 km/h (0 Bft)
07/07/2012 22:40 19,5 C 77 % 1007,7 hPa 0,0 mm 2,2 km/h (1 Bft) S-SE 157 0 min 0 W/m 15,4 C 19,5 C 2,2 km/h (1 Bft)
07/07/2012 22:50 19,2 C 78 % 1008,0 hPa 0,0 mm 1,8 km/h (1 Bft) S 180 0 min 0 W/m 15,3 C 19,2 C 4,3 km/h (1 Bft)
07/07/2012 23:00 18,9 C 79 % 1008,3 hPa 0,0 mm 1,8 km/h (1 Bft) SO 225 0 min 0 W/m 15,2 C 18,9 C 4,0 km/h (1 Bft)
07/07/2012 23:10 18,6 C 79 % 1008,4 hPa 0,3 mm 0,0 km/h (0 Bft) O-SO 247 0 min 0 W/m 14,9 C 18,6 C 0,0 km/h (0 Bft)
07/07/2012 23:20 18,3 C 82 % 1008,6 hPa 0,0 mm 7,6 km/h (2 Bft) S-SO 202 0 min 0 W/m 15,2 C 18,3 C 12,2 km/h (2 Bft)
07/07/2012 23:30 17,8 C 84 % 1009,2 hPa 0,0 mm 9,4 km/h (2 Bft) S-SO 202 0 min 0 W/m 15,1 C 17,8 C 13,7 km/h (3 Bft)
07/07/2012 23:40 17,6 C 86 % 1009,6 hPa 0,1 mm 7,6 km/h (2 Bft) S-SE 157 0 min 0 W/m 15,2 C 17,6 C 12,2 km/h (2 Bft)
07/07/2012 23:50 17,4 C 85 % 1009,8 hPa 0,0 mm 9,7 km/h (2 Bft) O 270 0 min 0 W/m 14,8 C 17,4 C 20,9 km/h (4 Bft)
_ Min-Heure 06:50 17:50 21:20 - 23:10 - - - - 06:50 06:50 23:10
Minimum _ 12,5 C 47 % 1006,3 hPa - 0,0 km/h (0 Bft) - - - - 10,6 C 12,5 C 0,0 km/h (0 Bft)
_ Max-Heure 17:40 07:10 02:00 23:10 12:00 - - 23:50 23:50 15:30 17:40 23:50
Maximum _ 26,8 C 90 % 1013,4 hPa 0,3 mm 12,6 km/h
SO (3 Bft)
- - 0 min 0 W/m 16,7 C 26,8 C 20,9 km/h
O (4 Bft)
Moyenne _ 19,5 C 71 % 1010,6 hPa #0,5 mm 4,3 km/h (1 Bft) S-SO - #0 min. 0 W/m 13,8 C 19,5 C 6,9 km/h (2 Bft)
Saint Bonnet de Bellac- Haute Vienne - France